Regional Weather Roundup
Issued by NWS Midland/Odessa, TX

Skip options and go directly to product.
Home | Oldest Version | Previous Version | Current Version | All | Text Only | Save Text | Print | Product List | Glossary Off

Skip product version selection by date and time.   

238
ASUS44 KMAF 282010
RWRMAF
MIDLAND AREA WEATHER ROUNDUP
NATIONAL WEATHER SERVICE MIDLAND TX
300 PM CDT THU JUL 28 2016

...IN SOUTHWEST TEXAS AND SOUTHEAST NEW MEXICO...

CITY           SKY/WX    TMP DP  RH WIND       PRES   REMARKS
ALPINE         MOSUNNY   88  53  30 NE10G21   30.17F
ANDREWS        FAIR      92  61  35 SE10      30.06F
ARTESIA        SUNNY     93  57  29 SW6G12    30.07F
BIG SPRING     MOSUNNY   93  62  35 SE3       30.05F
CARLSBAD       PTSUNNY   89  62  40 SE16      30.04F
DRYDEN           N/A     90  69  50 S13       29.98F
FORT STOCKTON  SUNNY     92  60  34 E10       30.04F
GUAD PASS      MOSUNNY   86  52  30 NE22G30   30.21F
HOBBS          MOSUNNY   91  54  27 NE8G15    30.09F
MARFA          MOSUNNY   89  55  31 NE17G28   30.15F
MIDLAND AIRPK  MOSUNNY   94  60  31 E9        30.04F
MIDLAND INTL   PTSUNNY   91  62  37 MISG      30.04F
ODESSA         MOSUNNY   92  61  35 SE9G18    30.06F
PECOS          MOSUNNY   93  60  32 E16       30.01F
PRESIDIO       FAIR      96  56  26 E17G25    29.97F
SEMINOLE       MOSUNNY   94  58  29 SE8       30.08F
SNYDER           N/A     91  64  39 SE7       30.02F
WINK           PTSUNNY   90  62  39 MISG      30.01F
$$
...OTHER STATIONS IN TEXAS...

CITY           SKY/WX    TMP DP  RH WIND       PRES   REMARKS
ABILENE        SUNNY     92  66  42 S7        29.99F
AMARILLO       SUNNY     91  59  33 E6        30.09F
AUSTIN         PTSUNNY   95  71  45 S8        29.95F HX 102
BROWNSVILLE    MOSUNNY   95  74  50 SE21G28   29.94F HX 105
CORPUS CHRISTI PTSUNNY   94  75  54 SE15G26   29.94F HX 105
DALLAS FTW     PTSUNNY   96  69  41 VRB5      29.92F HX 102
DEL RIO        MOSUNNY   95  68  41 E10       29.93F
EL PASO        MOSUNNY   95  48  20 NE8G17    30.06F
HOUSTON INT    LGT RAIN  79  74  84 CALM      30.01F
LUBBOCK        MOSUNNY   94  57  28 E7        30.07F
SAN ANGELO     LGT RAIN  89  65  44 E5        30.00F
SAN ANTONIO    PTSUNNY   93  69  45 SW9       29.95F
WACO           SUNNY     97  67  37 S7        29.94F HX 101
WICHITA FALLS  NOT AVBL
$$
...OTHER LOCATIONS IN NEW MEXICO...

CITY           SKY/WX    TMP DP  RH WIND       PRES   REMARKS
ALAMAGORDO     SUNNY     93  52  24 SW9G18    30.09F
ALBUQUERQUE    CLOUDY    93  43  17 SW8       30.18F
CANNON AFB     NOT AVBL
CLOVIS         SUNNY     88  55  33 E3        30.14F
HOLLOMAN AFB   NOT AVBL
ROSWELL        SUNNY     93  56  28 E5        30.08F
RUIDOSO          N/A     81  46  30 SE15      30.35F
SANTA FE       CLOUDY    88  42  20 W8        30.26S
TRUTH OR CONSE PTSUNNY   91  52  26 CALM      30.14F
TUCUMCARI      SUNNY     93  47  20 CALM      30.10F
$$

USA.gov is the U.S. government's official web portal to all federal, state and local government web resources and services.